Weather Service Report


804 
ASUS44 KBMX 260810
RWRAL 
             
ALABAMA REGIONAL WEATHER ROUNDUP
NATIONAL WEATHER SERVICE BIRMINGHAM AL
300 AM CDT WED APR 26 2017

NOTE: "FAIR" INDICATES FEW OR NO CLOUDS BELOW 12,000 FEET
WITH NO SIGNIFICANT WEATHER AND/OR OBSTRUCTIONS TO VISIBILITY.

THE REMARK "TC" DENOTES TEMPERATURE IN DEGREES CELSIUS.

ALZ001>011-014-016>018-020-260900-
NORTH ALABAMA
  
CITY           SKY/WX    TMP DP  RH WIND       PRES   REMARKS
MUSCLE SHOALS  CLEAR     59  54  83 E5        29.69S                  
HUNTSVILLE     CLEAR     61  57  87 SE6       29.71S                  
DECATUR        CLEAR     57  56  96 SE7       29.71S                  
HALEYVILLE     FAIR      61  56  83 S7        29.72F                  
GADSDEN        CLEAR     54  53  97 CALM      29.75S                  
$$
 
ALZ012-013-022-023-030>036-040>044-260900-
WEST CENTRAL ALABAMA
  
CITY           SKY/WX    TMP DP  RH WIND       PRES   REMARKS
TUSCALOOSA     CLEAR     61  58  90 S7        29.72F                  
$$
 
ALZ015-024>027-033>036-040>044-260900-
CENTRAL ALABAMA
  
CITY           SKY/WX    TMP DP  RH WIND       PRES   REMARKS
BIRMINGHAM     CLEAR     65  56  72 SW8       29.76R                  
MONTGOMERY     CLEAR     60  53  77 S3        29.76S                  
SHELBY CO ARPT CLEAR     62  58  86 S6        29.75S                  
MAXWELL AFB    CLEAR     57  56  97 CALM      29.75F                  
GREENVILLE     FAIR      59  54  83 CALM      29.75F                  
$$
 
ALZ019-021-028-029-037-038-045>048-260900-
EAST CENTRAL ALABAMA
  
CITY           SKY/WX    TMP DP  RH WIND       PRES   REMARKS
ANNISTON       CLEAR     57  57 100 E3        29.75F                  
ALEXANDER CITY CLEAR     54  53  94 CALM      29.77S                  
AUBURN         CLEAR     58  55  90 SW6       29.79S                  
$$
 
ALZ051>064-260900-
SOUTHWEST ALABAMA
  
CITY           SKY/WX    TMP DP  RH WIND       PRES   REMARKS
MOBILE         CLEAR     61  57  87 S7        29.74F                  
BROOKLEY FIELD CLEAR     68  60  75 VRB6      29.75F                  
EVERGREEN      CLEAR     56  53  90 CALM      29.76F                  
$$

ALZ049-050-065>069-260900-
SOUTHEAST ALABAMA
  
CITY           SKY/WX    TMP DP  RH WIND       PRES   REMARKS
DOTHAN         CLEAR     62  60  93 SW6       29.82F                  
OZARK          CLEAR     58  56  94 CALM      29.78F                  
TROY           CLEAR     55  55 100 CALM      29.78F                  
EUFAULA        FAIR      56  55  97 CALM      29.77F                  
$$
  

Return to Home page


Western Regional Climate Center, wrcc@dri.edu